Weather Roundup
Issued by NWS Springfield, MO

Home | Current Version | Previous Version | Text Only | Print | Product List | Glossary On
Versions: 1 2 3 4 5 6 7 8 9 10 11 12 13 14 15 16 17 18 19 20 21 22 23 24 25 26 27 28 29 30 31 32 33 34 35 36 37 38 39 40 41 42 43 44 45 46 47 48 49 50
000
NZUS99 KSGF 201559
HRRSGF

HOURLY WEATHER
NATIONAL WEATHER SERVICE SPRINGFIELD MO
1100 AM CDT SUN APR 20 2014

......SGF CWA......

CITY           SKY/WX    TMP DP  RH WIND       PRES   REMARKS
SPRINGFIELD    SUNNY     72  51  47 S12       30.18S
JOPLIN         MOSUNNY   72  50  45 S14       30.15F
WEST PLAINS    SUNNY     70  46  42 S9        30.21F
ROLLA          SUNNY     71  49  45 VRB6G16   30.17S
OSAGE BEACH    MOSUNNY   73  48  40 S13       30.18R
BRANSON        PTSUNNY   72  48  43 S9        30.20S

......SURROUNDING SGF CWA......

CITY           SKY/WX    TMP DP  RH WIND       PRES   REMARKS
CHANUTE        MOSUNNY   70  52  52 S16       30.12F
PARSONS        PTSUNNY   73  53  49 S10       30.13F
COFFEYVILLE    MOSUNNY   73  53  49 S15       30.12F
EMPORIA        MOSUNNY   72  53  51 S18       30.07F
GROVE OK       MOSUNNY   75  52  43 S13G18    30.16S
SILOAM SPRINGS PTSUNNY   72  52  49 S13       30.19S
HARRISON AR    MOSUNNY   73  49  42 S13       30.20S
NEAR YELLVILLE SUNNY     72  48  43 E3        30.20F

......KANSAS AND MISSOURI......

CITY           SKY/WX    TMP DP  RH WIND       PRES   REMARKS
KANSAS CTY INT PTSUNNY   74  52  46 SW17      30.09S
DOWNTOWN KC    MOSUNNY   75  52  44 S13G24    30.09S
COLUMBIA       SUNNY     74  51  44 S8        30.16S
SEDALIA        MOSUNNY   72  52  49 SW12      30.15S
ST JOSEPH      PTSUNNY   72  51  47 SW18      30.07R
ST LOUIS       PTSUNNY   74  41  30 S12G20    30.19F
SPIRIT OF STL  SUNNY     74  41  30 S7        30.17F
KIRKSVILLE     SUNNY     74  49  41 SW10      30.13S
WICHITA        CLOUDY    66  53  63 S16       30.08R
TOPEKA         SUNNY     74  52  46 SW16G23   30.07S
OLATHE         MOSUNNY   70  52  52 S13G21    30.10S

......TENNESSEE......

CITY           SKY/WX    TMP DP  RH WIND       PRES   REMARKS
MEMPHIS        MOSUNNY   73  48  41 S6        30.22F
NASHVILLE      MOSUNNY   73  43  33 S3        30.23F

......ARKANSAS.......

CITY           SKY/WX    TMP DP  RH WIND       PRES   REMARKS
FAYETTEVILLE   MOSUNNY   71  52  50 S14       30.18F
FT SMITH       MOSUNNY   74  56  53 VRB5      30.16F
LITTLE ROCK    MOSUNNY   74  49  41 CALM      30.21S

......OKLAHOMA.......

CITY           SKY/WX    TMP DP  RH WIND       PRES   REMARKS
TULSA          CLOUDY    68  54  60 S9        30.13R
PONCA CITY     CLOUDY    69  53  56 S8        30.11R
MCALESTER      CLOUDY    70  53  54 S8        30.16R
OKLAHOMA CITY  CLOUDY    67  56  67 S13       30.11R

......IOWA............

CITY           SKY/WX    TMP DP  RH WIND       PRES   REMARKS
DES MOINES     PTSUNNY   76  51  41 S15G22    30.04F
QUAD CITIES    SUNNY     74  43  32 SW12      30.13R

......ILLINOIS........

CITY           SKY/WX    TMP DP  RH WIND       PRES   REMARKS
QUINCY         MOSUNNY   74  47  38 SW15G22   30.14F
CHICAGO        PTSUNNY   68  36  30 S13       30.19F



USA.gov is the U.S. government's official web portal to all federal, state and local government web resources and services.